Flag for U.S.A. Weather past 2 weeks in Metairie, Louisiana, U.S.A.

Now
77 °F

Mostly cloudy.


Feels Like: 78 °F
Forecast: 76 / 86 °F
Wind: 5 mph from Northwest

Location: New Orleans International Airport

Current Time: Sep 16, 2014 at 10:35:54 PM

Latest Report: Sep 16, 2014 at 9:53 PM


Visibility: 10 mi

Pressure: 30.03 "Hg

Humidity: 90%

Dew point: 74 °F

Location of MetairieLocation

Historic Weather in Metairie — Graph

°F

Metairie temperature yesterday

Maximum temperature yesterday: 89 °F (at 1:53 PM)
Minimum temperature yesterday: 77 °F (at 3:53 PM)
Average temperature yesterday: 82 °F

Past Weeks' High & Low Weather Summary

 TemperatureHumidityPressure
High93 °F (Sep 9, 2:53 PM)94% (Sep 7, 3:53 AM)30.14 "Hg (Sep 7, 3:53 AM)
Low74 °F (Sep 6, 1:53 AM)47% (Sep 9, 2:53 PM)29.91 "Hg (Sep 10, 5:53 PM)
Average82 °F77%30.02 "Hg
* Reported Sep 1 8:53 PM — Sep 16 8:53 PM, Metairie, Weather by CustomWeather, © 2014

Note: Actual official high and low records may vary slightly from our data, if they occured in-between our weather recording intervals... More about our weather records

Advertising

Metairie weather history for previous 24 hours

 ConditionsComfort  
Time TempWeatherWind HumidityBarometerVisibility
8:53 PM
Sep 16
77 °FMostly cloudy.No wind90%30.01 "Hg10 mi
7:53 PM76 °FBroken clouds.3 mph94%30.00 "Hg10 mi
6:53 PM77 °FBroken clouds.6 mph90%30.00 "Hg10 mi
5:53 PM76 °FBroken clouds.5 mph91%30.01 "Hg10 mi
4:53 PM76 °FLight rain. Partly sunny.6 mph91%30.01 "Hg10 mi
3:53 PM79 °FLight rain. Partly sunny.9 mph84%30.00 "Hg10 mi
2:53 PM85 °FPartly sunny.16 mph75%30.00 "Hg10 mi
1:53 PM84 °FPartly sunny.5 mph65%30.02 "Hg10 mi
12:53 PM85 °FPartly sunny.10 mph72%30.05 "Hg10 mi
11:53 AM88 °FBroken clouds.No wind67%30.06 "Hg10 mi
10:53 AM85 °FPartly sunny.No wind72%30.09 "Hg10 mi
9:53 AM84 °FScattered clouds.No wind74%30.08 "Hg10 mi
8:53 AM83 °FScattered clouds.No wind74%30.08 "Hg10 mi
7:53 AM79 °FPassing clouds.3 mph90%30.08 "Hg10 mi
6:53 AM76 °FPassing clouds.3 mph94%30.07 "Hg10 mi
5:53 AM76 °FPassing clouds.No wind94%30.06 "Hg10 mi
4:53 AM77 °FPassing clouds.No wind90%30.05 "Hg10 mi
3:53 AM77 °FPassing clouds.No wind90%30.06 "Hg10 mi
2:53 AM77 °FPassing clouds.3 mph94%30.07 "Hg10 mi
1:53 AM77 °FPassing clouds.3 mph94%30.08 "Hg10 mi
12:53 AM77 °FPassing clouds.No wind94%30.08 "Hg10 mi
11:53 PM
Sep 15
78 °FPassing clouds.No wind90%30.09 "Hg10 mi
10:53 PM79 °FPassing clouds.No wind90%30.10 "Hg10 mi
Weather by CustomWeather, © 2014

See weather overviewHow to use our weather pages